Theta_e
300 294 291 295 297 297 295 294 292 296 298 295 294 295 297 299 299 297 299 300 300 299 301 302 301 299 298 296 294 294 292 292 293 290 289 288 289 289 288 289 289 289 288 288
296 292 298 299 298 295 294 291 292 295 297 294 293 293 296 297 298 300 299 300 301 298 299 299 299 298 297 295 294 293 293 292 292 292 291 289 288 288 288 289 288 289 288 287
292 295 300 297 295 294 293 291 291 291 294 292 289 288 292 295 298 299 300 300 300 297 297 297 297 297 295 294 293 293 293 292 292 291 291 288 288 286 285 286 286 287 288 287
294 298 297 294 293 294 289 294 294 292 289 285 291 282 290 292 293 294 296 297 296 296 298 297 296 295 294 294 294 293 293 292 292 291 290 287 286 283 284 286 286 286 287 285
292 293 292 292 293 295 291 292 290 290 288 286 287 284 287 292 290 293 295 297 297 297 298 296 296 295 295 294 293 292 292 292 292 291 290 287 285 285 285 284 285 284 284 285
293 295 294 294 292 293 292 290 289 287 285 280 286 286 284 288 291 292 294 295 296 296 295 296 295 294 293 293 291 292 291 291 291 290 289 288 286 285 283 282 282 283 283 283
290 292 293 294 290 290 289 287 280 278 277 280 287 284 289 291 292 293 294 295 295 296 294 293 293 292 292 292 291 291 291 290 290 289 289 288 287 286 284 283 283 282 281 281
286 285 291 292 292 290 287 288 281 275 279 283 283 280 286 294 295 294 295 297 295 294 295 293 293 292 292 291 291 291 290 290 289 289 288 288 287 287 285 284 283 282 281 280
286 286 290 291 292 293 288 284 289 283 278 277 285 287 291 292 293 293 293 292 292 293 294 293 292 291 290 291 290 290 290 290 289 288 288 287 286 284 284 282 281 281 280 280
291 286 290 287 288 288 287 289 282 283 272 272 282 283 286 290 293 291 289 291 291 292 292 293 293 292 292 291 291 290 290 289 289 287 287 286 285 284 282 281 280 279 278 278
292 289 286 286 284 286 283 284 284 285 283 277 278 282 288 289 290 291 291 292 292 293 293 293 293 293 291 291 290 289 289 288 287 286 286 285 283 282 280 280 279 278 278 277
293 289 284 287 290 290 289 288 288 283 282 281 283 284 292 293 291 292 292 293 293 294 294 293 293 291 290 290 289 289 288 288 287 286 284 283 281 280 279 278 277 277 277 277
292 285 280 282 288 287 284 287 289 289 287 283 280 283 293 296 290 290 290 291 293 293 293 294 292 291 290 290 289 288 288 287 286 285 283 282 280 279 278 277 277 276 275 275
295 288 284 280 284 288 285 287 287 287 282 283 283 285 291 293 294 295 296 295 293 293 293 292 292 291 291 290 289 289 288 287 286 285 283 281 279 278 277 276 275 275 275 274
290 282 286 286 288 288 286 287 287 286 286 282 285 285 289 292 294 295 296 296 294 294 295 292 291 292 291 289 288 288 288 286 285 283 282 280 278 277 276 275 275 274 274 274
291 283 285 283 286 286 284 286 287 286 287 287 288 287 293 294 295 295 296 296 296 295 296 293 292 289 288 288 289 286 285 284 284 282 280 278 276 276 275 274 274 274 274 274
286 284 283 280 284 284 280 284 286 287 289 288 284 289 294 294 294 295 296 297 296 294 295 292 290 289 287 287 287 284 284 283 281 280 278 276 275 274 274 274 273 273 272 273
289 286 286 282 284 275 285 292 290 288 289 291 291 293 294 295 296 297 298 297 296 295 295 292 289 290 289 286 283 282 281 281 280 278 277 275 274 273 273 272 271 271 272 271
294 289 284 280 280 284 286 289 288 287 286 292 291 293 294 296 296 295 299 299 298 297 297 292 290 290 288 284 282 281 280 278 277 276 275 274 273 272 272 271 270 271 271 271
291 292 286 284 279 277 286 291 294 293 283 293 294 293 293 294 287 291 297 297 293 293 291 290 288 285 283 279 280 279 276 275 275 275 274 273 273 272 271 270 270 270 270 270
283 284 282 282 281 284 290 291 291 280 284 294 294 294 293 290 290 291 290 290 290 289 288 284 283 281 279 278 278 276 275 274 275 275 273 272 271 272 270 270 270 269 268 269
283 280 280 282 279 277 288 288 285 286 288 288 288 289 288 290 290 290 290 288 288 287 284 280 277 276 275 276 277 275 274 274 274 272 270 270 269 270 269 267 267 267 267 266
276 278 275 277 277 285 286 287 289 289 286 287 287 289 291 290 290 289 290 289 288 285 280 278 277 274 273 274 276 274 274 273 271 270 268 267 267 268 267 265 265 265 265 266
277 281 277 279 283 283 287 289 291 288 287 288 288 287 287 286 287 287 287 288 287 280 280 278 276 274 273 273 274 274 273 271 269 267 267 266 267 265 265 266 266 266 265 266
277 276 275 274 278 280 282 283 284 284 283 283 284 284 284 285 285 286 286 287 289 288 281 278 277 277 276 272 272 270 270 269 268 266 266 265 266 265 265 266 266 267 268 268
276 274 272 271 278 278 278 281 282 281 280 278 279 280 282 283 283 284 285 287 288 287 282 277 277 277 274 272 272 268 269 269 267 266 265 265 265 265 265 265 266 271 270 272
Wind_Speed
7 6 13 19 15 17 14 16 17 22 12 9 17 19 16 12 12 12 14 16 15 12 12 16 16 13 15 14 15 15 14 12 10 6 6 5 6 5 4 4 7 7 6 6
4 15 18 9 11 8 10 12 20 18 13 10 11 15 10 9 16 20 17 18 20 8 9 11 17 13 17 17 16 16 16 15 12 9 7 4 5 4 5 5 6 7 7 6
19 8 17 13 11 11 17 12 16 18 13 5 5 8 12 11 20 18 18 21 16 11 11 12 16 16 15 17 18 18 18 17 14 10 7 3 5 4 4 5 5 6 7 7
18 18 18 15 19 10 22 10 12 13 7 9 5 10 9 6 8 10 16 15 11 11 9 11 13 15 17 15 15 16 15 16 15 14 12 11 10 7 4 5 4 6 8 8
9 5 7 13 19 11 11 3 2 4 6 6 5 10 8 11 10 14 12 16 11 10 12 12 15 16 15 14 15 15 14 16 16 16 14 12 9 6 5 5 9 6 6 7
17 4 3 4 3 0 3 0 4 3 2 12 12 12 5 9 11 7 10 13 12 7 8 8 9 12 13 12 12 14 17 16 15 15 13 16 16 10 8 7 7 6 5 5
6 19 4 5 3 2 3 3 4 4 2 15 12 13 17 6 8 11 12 13 9 9 10 10 12 13 13 16 15 13 16 17 16 16 16 16 14 13 13 12 9 8 6 4
5 8 18 9 16 9 9 10 7 8 11 23 5 11 7 10 11 12 13 16 10 9 9 10 11 11 13 13 16 17 18 17 18 17 17 15 13 10 10 11 9 7 6 6
8 10 4 7 3 10 6 7 4 3 2 5 12 13 9 8 12 12 13 9 9 9 10 10 10 10 11 14 18 19 19 19 18 17 14 15 13 11 10 9 7 6 6 6
5 9 9 4 4 3 4 1 3 2 2 9 22 17 18 7 18 10 6 9 7 9 9 9 10 12 11 12 14 16 16 18 15 14 14 12 13 11 9 8 9 9 7 7
6 6 8 7 9 10 2 4 4 2 7 10 15 18 5 6 2 9 8 6 8 10 11 12 13 11 11 12 14 15 16 16 16 14 14 14 11 10 9 10 10 9 7 8
4 2 8 16 7 5 8 15 14 12 19 4 11 31 2 9 7 10 11 10 8 9 10 10 11 11 13 15 13 16 15 16 16 13 12 13 10 11 12 10 9 9 8 7
7 3 6 9 15 6 7 5 11 12 12 19 19 27 7 19 8 5 6 6 8 10 10 10 8 12 14 14 14 16 16 18 14 14 15 13 14 14 14 11 10 9 8 8
11 9 15 17 19 13 13 20 12 14 12 23 25 32 33 27 26 24 21 12 11 10 10 10 8 9 12 15 16 16 15 16 15 15 16 15 16 14 12 10 9 9 8 8
8 11 20 28 28 30 32 32 29 28 25 23 26 27 28 31 21 26 18 17 10 12 14 11 11 11 13 11 12 14 14 14 15 16 16 15 11 10 9 9 10 8 7 6
11 11 15 21 27 30 32 32 32 35 36 35 36 35 32 31 29 31 29 27 18 18 17 10 13 11 11 13 15 12 12 13 15 16 15 13 12 11 12 11 11 9 8 7
11 9 8 19 22 25 23 36 36 34 32 34 31 40 43 35 33 38 28 21 19 13 16 11 11 10 10 11 14 14 14 12 14 14 14 14 15 14 14 13 12 11 10 9
20 20 16 19 17 27 21 24 34 35 34 37 35 35 32 34 35 23 16 19 19 14 14 12 9 9 10 8 9 9 11 15 15 15 15 14 16 15 14 13 12 10 8 8
24 23 14 15 20 24 8 22 27 26 33 31 27 30 32 28 22 22 24 23 18 18 18 11 9 9 6 9 10 13 12 13 15 17 17 17 17 16 15 13 12 10 9 8
27 28 23 19 16 18 13 23 27 26 13 14 21 24 23 21 14 19 24 17 10 13 9 8 4 2 7 6 11 14 14 14 17 17 17 16 16 17 16 14 13 11 10 9
9 20 26 23 18 14 6 9 7 9 13 19 18 16 15 11 7 12 10 8 6 5 3 2 3 5 5 8 10 11 13 17 13 13 14 14 15 15 13 12 9 10 9 9
13 10 8 10 12 14 19 10 12 9 17 16 17 15 16 11 9 9 10 10 8 8 6 3 3 2 1 6 10 11 13 10 12 14 15 13 14 12 13 14 10 10 8 7
5 6 6 7 11 15 9 12 2 5 11 9 10 10 13 16 16 12 13 11 10 9 4 2 4 5 3 4 7 10 9 13 14 14 13 13 12 11 12 13 11 8 8 7
10 23 9 12 1 19 19 13 11 16 12 9 8 11 12 15 19 22 19 18 12 6 8 6 7 8 10 10 9 5 11 13 14 15 14 13 13 13 10 8 9 9 8 6
12 20 14 24 22 20 19 15 16 19 16 16 13 13 14 17 18 15 14 17 15 10 6 7 10 10 12 10 10 9 15 16 15 15 14 13 11 13 12 8 9 8 7 8
12 15 15 19 22 22 25 22 21 21 18 12 16 19 15 14 16 18 14 16 15 16 7 8 12 12 12 14 15 15 17 18 17 15 14 13 12 11 11 10 10 13 14 15
Wind_Direction
196 184 212 220 212 233 253 264 263 264 261 177 231 242 246 255 269 252 256 255 251 241 227 194 179 168 163 162 164 168 167 170 170 163 165 163 175 179 172 171 160 158 158 174
219 226 231 251 259 278 271 275 271 279 287 197 249 254 251 250 255 257 257 265 261 238 242 173 169 165 169 166 168 170 176 175 179 174 174 160 161 186 171 167 164 166 169 182
223 199 216 235 244 253 244 243 258 264 286 221 306 270 254 242 245 259 261 255 259 219 231 176 170 173 164 171 175 176 179 179 181 170 163 160 134 117 148 175 166 174 168 174
251 240 246 247 255 222 266 240 264 266 285 249 155 281 230 234 240 230 247 260 241 223 207 169 169 171 171 177 177 180 179 181 183 176 179 179 179 170 191 178 161 173 170 174
219 174 196 232 239 219 262 150 247 279 268 310 252 275 227 183 233 240 244 255 253 229 191 170 175 172 174 175 178 179 181 188 189 188 182 176 182 180 164 156 163 161 172 176
259 122 230 230 71 130 124 318 233 239 197 254 205 218 196 197 212 225 226 247 253 180 144 150 158 156 173 175 175 183 187 193 188 189 186 186 185 177 160 157 163 171 176 183
224 235 167 137 166 165 194 153 294 293 188 255 180 227 242 209 186 190 211 235 204 162 155 171 167 170 174 182 181 183 191 199 192 190 191 192 190 185 178 172 168 165 171 182
228 279 180 177 208 169 183 181 173 233 259 276 165 251 241 204 219 209 205 232 157 165 171 182 173 179 182 178 184 186 193 198 195 192 195 193 189 192 186 176 171 177 171 165
204 249 48 158 157 159 178 197 200 242 54 314 259 272 299 243 232 217 214 160 175 175 185 178 178 182 188 187 191 193 196 201 200 198 193 195 191 184 182 167 158 161 155 161
259 262 185 139 57 287 197 178 113 232 257 241 278 284 270 213 249 226 189 208 200 204 185 187 190 196 194 194 195 198 200 203 200 196 194 194 193 181 168 160 166 162 160 159
230 217 247 119 199 190 154 246 229 273 181 233 268 272 266 132 100 182 208 224 224 206 197 200 201 196 187 196 194 195 197 194 198 192 191 189 185 179 162 170 166 165 157 159
235 250 235 231 239 216 217 225 199 223 237 236 236 263 295 274 153 156 179 199 216 207 205 193 203 184 189 196 189 196 196 199 199 188 181 187 171 172 171 167 159 153 154 154
2 340 326 298 291 242 220 222 249 256 254 249 247 261 204 266 215 224 192 231 225 219 211 215 210 190 194 196 197 198 197 201 192 182 179 178 179 180 179 165 155 151 147 152
139 224 235 240 247 283 275 284 256 254 248 252 249 262 276 266 275 279 278 279 227 226 216 227 222 203 200 203 201 200 200 194 184 179 181 183 184 180 169 150 146 151 152 158
160 228 222 234 248 259 262 262 262 270 270 262 275 266 267 274 271 270 274 273 277 272 259 230 222 222 207 201 198 199 198 185 177 176 180 182 165 159 146 140 144 143 148 149
178 242 215 229 232 240 248 254 255 249 248 244 252 268 260 262 272 273 268 270 279 271 265 243 235 219 212 205 202 194 190 177 171 175 176 163 151 151 147 141 142 144 152 160
193 204 214 245 229 235 235 236 244 251 245 246 247 244 254 259 255 261 271 280 271 252 259 231 232 228 215 208 194 188 182 159 165 165 160 158 155 155 154 148 148 157 167 167
229 226 235 250 242 228 225 232 228 237 239 242 241 249 254 251 257 265 268 271 276 268 274 253 228 232 223 205 175 142 149 161 165 165 162 156 155 157 152 150 157 159 157 169
229 237 245 240 234 250 248 221 214 224 240 247 257 252 252 261 266 278 263 255 262 270 270 251 220 220 187 166 153 147 151 157 163 171 167 163 159 156 155 158 155 156 162 170
233 233 238 237 246 250 237 232 251 256 260 251 241 249 250 250 252 251 259 270 230 244 241 254 184 127 149 148 146 148 157 164 180 178 169 161 160 159 160 160 161 158 157 158
220 227 235 239 249 261 256 277 344 239 258 249 271 278 289 282 331 334 339 315 304 284 277 54 145 174 171 135 143 161 165 189 176 161 157 157 155 155 152 150 155 152 151 149
248 212 210 241 246 256 8 341 245 353 8 8 359 348 340 337 326 335 335 336 332 301 304 103 118 109 97 147 155 171 189 159 158 150 153 158 156 148 145 147 148 145 148 144
263 1 331 325 334 328 304 290 319 358 349 327 334 327 349 334 338 348 329 322 314 296 254 211 181 169 180 180 183 184 176 145 152 151 154 150 149 144 144 143 146 150 147 158
303 299 284 291 288 317 313 299 275 322 340 334 304 286 294 298 295 295 292 291 271 233 229 207 183 201 209 194 197 187 155 148 156 150 152 155 154 147 145 144 152 144 155 165
291 309 292 284 283 297 299 315 334 321 316 312 304 284 284 289 283 285 294 292 292 263 212 196 211 217 225 188 189 153 160 159 163 159 155 163 159 155 152 160 154 153 156 160
270 274 285 292 300 294 300 313 316 314 329 341 319 322 321 300 306 300 295 282 280 282 271 209 217 216 204 183 184 170 169 170 163 167 164 170 164 160 155 148 146 155 157 165